STARLINK-1221, 45227

Orbit data source: Space-Track

STARLINK-1221, 45227 is a payload satellite owned by SpaceX/Seattle (US) in LEO that was launched on Mon, 17 Feb 2020 UTC via an FALCON 9 launch vehicle from the Air Force Eastern Test Range (AFETR). Payload-class satellites include a variety of spacecraft equipped with specific instruments for various scientific and technological missions. These include communications satellites like Starlink; space stations such as the ISS; scientific satellites like the Hubble; Earth observation satellites from companies like Planet Labs, Umbra, and HawkEye 360; GPS; miniature CubeSats for education and research; and military/defense satellites.

Loading next visibility...
Identifier
45227, 2020-012BB
Orbit
LEO
Country
Flag of USUS
Related business
Manufacturer
SpaceX/Seattle
Mission
Partially operational Commercial Communications
Bus & Motor
STARLINK, Unknown motor
Mass
260 kg wet, ~248 kg dry
Launch date (UTC)
2020-02-17 (6 years ago)
Launch vehicle
FALCON 9
Launch site
Air Force Eastern Test Range (AFETR)
Object type
Payload
Rocket body
Debris
Shape & HBR
Box + 1 Pan, 10.1 m
Radar Cross Section
13.562 m², Large (>1 m²)

Expand to show TLE details & history
Last TLE update: 11 hours ago

TLE from 11 hours ago
0 STARLINK-1221
1 45227U 20012BB  25288.57778792  .00018545  00000-0  52922-3 0  9998
2 45227  53.0676 234.2221 0001582 289.8793  70.2039 15.36103427314367
Epoch: 2025-10-15T13:52Z
TLE epoch observation values (Epoch: 2025-10-15T13:52:00.876Z)
Latitude
0.00002°
Longitude
1.86861°
Altitude
458.171 km
Speed
7.639 km/s
True Right ascension
15h 36m 53s
True Declination
0° 00' 00"
Sunlit
Object was in daylight at epoch
Visualization orbit readout
Latitude
Unknown
Longitude
Unknown
Altitude
Unknown
Speed
Unknown
Apparent Right ascension
Unknown
Apparent Declination
Unknown
Sunlit
N/A
Visualization observer readout
Local Sidereal Time
19:10:46
Azimuth
Unknown
Elevation
Unknown
Doppler factor
Unknown
Orbital elements
Apogee altitude
458.998 km
Perigee altitude
456.836 km
Semi-major axis
6,836.054 km
Eccentricity
0.00016
Inclination
53.0676°
RAAN
234.2221°
Arg. of periapsis
289.8793°
True anomaly
70.22096°
Mean anomaly
70.2039°
Eccentric anomaly
70.21243°
Mean motion
3.84003 °/min
Orbital period
93.75 mins
BSTAR
0.00052922
Loading maneuver chart data...
Computing Atmospheric mass density...
Loading historical data...
Loading historical data...
Loading historical data...
Loading historical data...
Loading historical data...
Loading historical data...
Loading historical data...

Documentation

Showing up to 5 results
|